PROBA-1 1 26958U 01049B 26126.98067946 .00001225 00000+0 83202-4 0 9998 2 26958 97.9607 134.0775 0053558 262.2076 97.3068 15.07339919337416 CUTE-1 (CO-55) 1 27844U 03031E 26126.94171881 .00000268 00000+0 13492-3 0 9995 2 27844 98.6750 136.0181 0008555 310.3751 49.6680 14.24310032185800 CUBESAT XI-IV (CO-57) 1 27848U 03031J 26126.97982924 .00000220 00000+0 11591-3 0 9996 2 27848 98.6782 135.8017 0008787 330.5693 29.4990 14.23598617185514 APRIZESAT 4 1 35684U 09041D 26126.78572290 .00000878 00000+0 11108-3 0 9993 2 35684 98.1418 201.2817 0044685 95.8738 264.7572 14.83819530905220 APRIZESAT 3 1 35686U 09041F 26126.96862898 .00002556 00000+0 22479-3 0 9999 2 35686 98.2018 278.2343 0061322 201.7795 158.0817 14.96104470910211 PROBA-2 1 36037U 09059B 26126.49347511 .00000173 00000+0 50886-4 0 9994 2 36037 98.2450 310.4252 0014273 53.1981 307.0523 14.54844704875461 APRIZESAT 5 1 37792U 11044E 26126.79481499 .00000919 00000+0 12329-3 0 9994 2 37792 98.2441 58.6695 0053213 134.9376 225.6171 14.80990680792663 APRIZESAT 6 1 37793U 11044F 26126.75127731 .00000656 00000+0 10000-3 0 9999 2 37793 98.2385 36.4019 0042255 217.1672 205.3992 14.76860115791032 PROBA-V 1 39159U 13021A 26126.93214921 .00000068 00000+0 47881-4 0 9997 2 39159 98.3567 107.5811 0002997 248.3467 111.7393 14.23588123675247 APRIZESAT 7 1 39416U 13066A 26126.82817226 .00001571 00000+0 16096-3 0 9990 2 39416 97.7680 80.6528 0035658 351.0150 9.0426 14.91469472675065 APRIZESAT 8 1 39425U 13066K 26126.84187793 .00001093 00000+0 12410-3 0 9996 2 39425 97.8197 74.8971 0047395 62.8630 297.7408 14.87563386673526 BUGSAT-1 (TITA) 1 40014U 14033E 26126.96398125 .00003988 00000+0 21470-3 0 9994 2 40014 98.0407 217.1199 0027248 323.9969 35.9425 15.15174291649590 SAUDISAT 4 1 40016U 14033G 26126.93134113 .00000725 00000+0 10234-3 0 9990 2 40016 97.7528 274.5073 0044221 205.9875 153.9117 14.79483798639979 APRIZESAT 9 1 40018U 14033J 26126.93953487 .00000454 00000+0 74369-4 0 9994 2 40018 97.9000 261.1605 0065512 334.0153 25.7771 14.74167172637486 APRIZESAT 10 1 40019U 14033K 26126.90180350 .00000462 00000+0 80070-4 0 9998 2 40019 97.9590 254.7972 0079797 46.3808 314.3982 14.70847531636183 TECHDEMOSAT-1 (TDS-1) 1 40076U 14037H 26126.95529243 .00007252 00000+0 41870-3 0 9996 2 40076 98.3818 115.1082 0007808 58.7924 301.4069 15.12660893641995 TECHNOSAT 1 42829U 17042E 26126.88935813 .00002467 00000+0 17895-3 0 9992 2 42829 97.4250 286.1382 0016293 230.9850 128.9926 15.04710224480490 FLYING LAPTOP 1 42831U 17042G 26126.98711257 .00002994 00000+0 23904-3 0 9993 2 42831 97.4511 284.1592 0017707 264.1987 95.7219 15.00880437480277 HAWK-A 1 43765U 18099H 26126.92761306 .00005819 00000+0 23779-3 0 9996 2 43765 97.3940 179.7112 0036724 72.1595 288.3643 15.24128192406816 HAWK-B 1 43794U 18099AN 26126.90039351 .00005812 00000+0 25107-3 0 9994 2 43794 97.3990 179.1845 0034054 89.0898 271.4240 15.22343433406751 HAWK-C 1 43799U 18099AT 26126.14449447 .00008950 00000+0 32688-3 0 9994 2 43799 97.3917 179.6471 0042582 75.3945 285.2010 15.27471119407499 SALSAT 1 46495U 20068K 26126.92876227 .00006820 00000+0 24320-3 0 9993 2 46495 97.8866 127.5035 0011680 88.8107 271.4470 15.29197943309057 HAWK-2C 1 47502U 21006CT 26126.08882981 .00006675 00000+0 20410-3 0 9991 2 47502 97.2307 171.2472 0006606 7.9205 352.2141 15.34165601293041 HAWK-2A 1 47505U 21006CW 26126.67871871 .00005886 00000+0 18016-3 0 9997 2 47505 97.2353 172.4786 0006272 10.5768 349.5606 15.34184484293134 HAWK-2B 1 47508U 21006CZ 26126.54525501 .00006648 00000+0 20300-3 0 9998 2 47508 97.2224 170.7477 0006701 7.5610 352.5734 15.34207259293111 HAWK-3B 1 48931U 21059BE 26126.51844749 .00037613 00000+0 36423-3 0 9991 2 48931 97.6694 319.3951 0006126 120.8629 239.3234 15.66293626271329 HAWK-3C 1 48948U 21059BX 26126.07095958 .00038603 00000+0 37412-3 0 9999 2 48948 97.6820 324.5186 0006561 122.1978 237.9918 15.66264835271256 HAWK-3A 1 48957U 21059CG 26126.07081832 .00041529 00000+0 40231-3 0 9999 2 48957 97.6764 321.7584 0006214 121.2630 238.9239 15.66264055271255 HAWK-5C 1 52754U 22057Y 26126.93664554 .00016644 00000+0 29927-3 0 9990 2 52754 97.6550 284.0126 0004298 205.3813 154.7227 15.49925353219955 HAWK-5B 1 52756U 22057AA 26126.93648075 .00015394 00000+0 27690-3 0 9998 2 52756 97.6558 282.3560 0004550 202.4017 157.7035 15.49930488219958 HAWK-5A 1 52757U 22057AB 26126.93625162 .00015597 00000+0 28052-3 0 9999 2 52757 97.6553 283.1896 0004770 204.2153 155.8874 15.49929262219958 HAWK-6B 1 55324U 23011A 26126.66804367 .00004592 00000+0 20178-3 0 9993 2 55324 40.4984 234.1699 0001679 102.9488 257.1509 15.22571355181510 HAWK-6C 1 55326U 23011C 26126.60180536 .00004561 00000+0 20047-3 0 9995 2 55326 40.4970 231.3986 0002080 79.6210 280.4834 15.22572153181512 HAWK-6A 1 55327U 23011D 26126.66744069 .00004584 00000+0 20147-3 0 9995 2 55327 40.4982 232.6370 0001698 75.9287 284.1711 15.22571065181521 HAWK-7A 1 56191U 23054P 26126.63321166 .00004660 00000+0 17894-3 0 9998 2 56191 97.2746 15.0291 0003437 150.3771 209.7663 15.26926659170684 HAWK-7B 1 56193U 23054R 26126.63315053 .00005513 00000+0 21118-3 0 9990 2 56193 97.2772 13.2781 0002485 147.8888 212.2503 15.26931437170683 HAWK-7C 1 56200U 23054Y 26126.56751384 .00005477 00000+0 20981-3 0 9998 2 56200 97.2749 13.9959 0002948 141.9716 218.1732 15.26929507170672